Theta_e
336 338 331 334 333 335 337 337 335 333 335 335 334 334 333 333 334 333 333 333 333 339 339 337 334 331 331 331 331 330 330 330 328 330 331 332 332 333 333 333 333 335 335
338 338 331 333 334 336 338 335 335 334 335 334 334 333 332 332 333 333 332 332 335 338 336 334 332 330 328 327 328 328 327 327 327 327 327 328 328 329 330 329 331 332 332
338 338 335 335 334 337 336 334 334 334 334 334 333 331 331 331 331 332 332 331 334 335 334 332 330 329 327 326 327 325 324 324 325 325 325 325 326 327 327 327 327 328 329
339 339 338 336 334 337 336 332 329 331 334 332 330 329 328 328 329 330 332 330 335 334 332 331 328 327 326 326 325 323 324 325 325 325 325 325 325 326 326 325 325 325 326
340 340 340 335 335 338 338 334 330 331 332 332 331 329 326 325 326 328 330 331 332 332 328 327 326 325 325 325 324 324 324 325 325 325 325 325 325 325 325 325 325 324 324
340 340 340 335 334 338 338 335 332 332 333 333 332 330 326 324 324 326 328 329 329 327 325 324 324 322 322 320 321 324 325 325 325 326 327 325 325 327 326 327 327 325 325
340 340 338 334 335 337 338 336 333 332 333 332 330 328 325 323 322 324 325 326 327 324 322 320 321 320 320 318 322 323 326 326 326 325 327 328 328 329 329 327 326 326 328
339 340 338 333 335 336 338 337 334 334 333 332 329 327 324 322 321 322 323 324 323 320 318 317 319 319 316 317 319 320 321 321 322 321 322 323 324 325 325 324 323 323 323
339 339 338 337 336 334 335 336 335 334 333 332 329 327 324 321 319 319 319 321 320 317 315 316 315 316 314 315 318 319 320 320 322 321 322 321 321 321 321 321 322 320 320
339 339 339 338 338 337 336 335 336 334 332 330 327 324 322 321 319 318 317 318 317 315 312 310 309 310 313 316 321 321 322 322 322 323 322 322 324 325 324 322 320 318 317
338 338 338 338 338 337 337 336 335 335 332 329 326 324 324 324 322 323 319 315 313 311 308 305 304 308 312 316 319 318 319 320 321 321 321 322 323 323 321 319 318 316 315
340 339 338 338 338 337 337 336 337 335 334 332 328 325 329 328 326 321 317 315 313 311 309 309 311 314 316 317 316 317 318 317 318 317 319 319 320 318 317 316 315 314 312
338 339 338 338 338 338 337 337 337 336 335 334 332 329 330 329 325 321 317 314 312 313 311 312 313 315 316 316 315 315 316 315 313 314 315 316 318 316 315 314 313 311 310
336 337 338 338 338 338 338 338 338 337 336 335 334 332 331 328 325 322 320 318 316 316 315 314 314 314 314 313 312 311 312 312 311 311 313 313 314 314 313 311 310 309 308
335 336 337 338 339 339 339 338 336 337 336 336 335 333 332 327 326 324 323 318 317 317 316 314 313 311 310 309 308 307 308 308 307 307 309 311 312 312 311 309 308 308 307
334 335 336 337 336 335 335 336 335 336 336 335 335 334 333 330 328 325 323 318 318 317 315 313 311 311 309 305 302 301 302 303 302 303 306 307 307 307 307 307 307 306 305
334 334 335 335 335 334 333 333 334 334 335 336 334 335 333 332 329 326 323 320 319 317 315 312 311 310 310 301 298 296 295 295 297 299 301 300 302 303 304 304 304 304 304
332 332 333 331 330 331 331 332 332 333 334 334 335 334 334 333 331 327 324 323 320 317 316 312 311 305 306 300 296 294 293 292 292 293 295 296 296 298 300 301 301 302 302
328 331 331 329 327 328 329 330 330 331 332 333 333 334 334 333 332 328 326 324 321 319 317 314 305 304 301 297 295 293 292 291 291 291 290 291 293 294 295 296 297 298 299
325 328 328 328 325 326 327 326 327 329 329 331 332 332 333 333 332 329 326 324 322 318 316 311 305 300 298 297 294 293 292 291 291 290 289 289 288 288 289 290 292 295 296
320 323 325 325 324 324 323 322 322 323 325 326 328 328 329 333 331 329 327 325 321 319 317 311 307 299 295 294 292 291 291 290 290 290 289 288 287 287 287 287 288 289 290
316 319 319 319 319 319 319 318 318 318 318 319 319 325 328 330 330 328 328 326 323 318 311 310 306 296 293 294 296 294 293 290 289 289 289 288 287 286 286 286 286 287 288
314 315 316 315 315 315 316 317 316 316 316 315 315 319 326 328 328 328 328 327 324 318 312 314 307 302 294 295 296 300 297 299 291 288 288 288 287 286 285 285 284 285 285
314 313 313 314 314 314 315 316 316 316 315 313 312 314 323 325 325 326 326 324 322 319 313 315 309 305 299 296 297 300 300 297 296 290 288 287 287 287 286 285 284 284 284
314 313 313 312 313 313 315 315 316 314 313 315 316 313 320 323 323 323 321 324 319 314 317 313 307 302 301 299 299 297 297 298 298 294 290 288 286 286 286 285 284 284 283
313 312 312 311 312 312 313 315 315 314 314 317 315 311 316 320 319 320 320 319 319 316 314 314 308 303 301 300 300 298 296 295 294 294 293 289 287 286 286 285 284 284 283
Wind_Speed
16 12 13 11 9 10 12 12 14 14 14 15 14 16 17 16 17 16 16 16 17 20 21 22 20 19 19 20 21 22 23 24 27 26 27 26 26 26 26 26 26 28 28
18 14 16 11 9 11 13 13 13 14 15 15 14 16 16 15 15 16 17 17 16 19 20 20 18 19 20 21 21 21 25 26 24 24 26 28 27 26 27 28 28 28 29
18 16 15 12 12 11 13 12 13 14 15 14 15 16 16 15 15 15 17 17 16 19 18 17 18 19 20 22 22 22 26 27 25 24 24 25 26 26 26 27 27 26 28
17 16 15 15 14 13 14 12 12 13 14 14 15 16 15 15 15 15 16 17 17 18 18 17 17 20 21 21 23 26 28 26 24 22 23 23 24 25 26 27 27 27 29
16 16 16 16 15 15 15 13 13 13 14 15 15 15 15 15 16 17 17 17 16 17 15 16 18 20 21 21 24 28 26 25 23 23 24 24 25 24 24 25 27 29 31
17 15 16 17 17 16 16 14 13 13 14 14 15 15 15 16 16 17 18 17 17 15 17 18 18 20 20 22 25 26 23 21 21 23 23 25 25 23 25 26 27 29 28
17 16 16 18 18 16 16 14 12 12 14 13 14 14 15 16 17 17 17 18 17 17 18 18 19 20 20 23 26 26 25 22 26 27 30 27 27 27 29 28 28 30 32
17 15 16 17 16 15 16 15 14 13 13 13 14 14 15 16 17 18 18 19 18 18 18 20 21 20 22 23 25 25 22 20 20 20 21 23 24 23 24 25 27 28 29
18 17 16 17 17 15 14 14 15 14 14 14 14 14 15 15 16 18 18 19 18 19 19 20 21 21 22 25 26 25 24 21 21 22 20 22 21 20 20 22 25 27 26
18 18 18 17 16 15 16 16 15 15 14 15 15 14 15 15 15 16 18 18 18 19 19 20 21 21 24 27 26 24 23 25 23 22 26 24 23 23 28 29 28 27 27
19 20 20 20 18 18 16 18 17 16 15 16 16 15 15 14 14 12 14 17 18 19 19 19 19 21 23 23 24 21 22 22 23 22 26 24 24 26 26 26 26 26 27
21 21 20 20 20 20 19 19 17 18 18 17 18 18 14 13 12 14 16 15 16 17 18 21 23 20 14 13 17 18 19 19 21 23 24 23 22 21 22 23 24 25 24
22 20 21 20 20 20 19 19 19 20 20 20 19 19 17 17 17 15 18 16 17 17 20 20 13 10 10 10 12 15 16 17 17 19 22 20 21 21 22 21 21 20 22
23 23 22 21 22 21 19 18 17 16 17 18 20 21 21 21 20 18 16 15 17 13 15 12 12 13 12 13 14 14 14 15 16 19 21 20 17 18 19 18 19 20 21
24 24 24 23 22 20 18 17 20 17 19 19 20 22 19 19 20 21 20 20 19 17 15 15 17 15 15 14 13 14 15 15 15 16 21 20 19 17 17 18 18 19 20
25 25 25 26 24 23 23 19 20 19 17 21 20 23 23 23 21 22 21 22 16 16 17 17 16 19 17 15 14 14 14 14 14 15 14 20 21 18 17 17 18 17 18
27 26 27 27 25 23 24 24 22 21 23 19 21 21 24 24 24 21 25 21 18 19 21 19 18 20 20 17 15 14 14 13 12 13 12 13 18 20 17 17 16 16 17
26 28 27 26 26 24 23 23 23 22 20 22 19 21 24 25 27 23 28 25 23 25 24 20 22 20 23 20 17 13 12 12 11 10 10 10 11 13 17 15 15 15 16
29 29 29 28 26 26 23 22 22 23 24 22 22 22 22 26 28 29 29 30 29 28 27 25 20 22 27 23 18 13 11 10 10 9 10 10 12 11 12 15 16 15 14
29 29 29 29 27 25 22 21 20 22 23 23 23 24 27 27 30 29 32 34 32 32 31 27 25 21 26 27 20 13 10 8 8 8 9 9 10 10 9 8 9 15 13
28 29 31 30 27 26 26 24 23 23 22 24 30 31 29 29 33 36 35 34 35 36 36 33 30 31 27 28 23 12 8 7 6 6 7 8 9 8 8 6 6 4 7
30 32 30 31 29 29 25 24 22 22 22 22 27 35 33 32 31 36 37 37 39 39 34 36 37 29 20 32 12 14 5 4 6 7 7 7 8 8 7 6 6 7 5
29 32 34 34 32 30 28 23 21 15 17 20 23 34 38 36 35 36 36 38 41 43 43 40 40 36 27 32 26 8 4 4 14 9 9 9 9 8 7 7 6 6 6
28 30 32 31 32 32 32 28 30 27 23 23 24 32 36 36 36 35 36 38 42 44 42 43 44 41 29 31 23 12 8 12 4 5 10 11 11 10 10 8 6 6 5
22 25 27 27 29 30 32 32 30 27 23 18 20 23 34 35 36 38 38 37 42 44 46 45 44 39 32 31 26 21 11 11 8 5 4 10 12 14 13 12 10 7 5
16 19 22 25 27 28 29 31 29 27 24 21 21 23 33 35 36 37 38 39 41 45 44 45 44 39 34 28 26 24 18 9 11 7 4 15 13 16 15 15 13 9 7
Wind_Direction
179 179 172 159 157 148 124 114 105 100 100 94 92 89 87 86 92 90 93 92 94 93 90 83 79 75 75 77 77 77 78 77 71 71 70 66 63 61 62 65 65 61 58
172 174 174 164 162 150 129 116 109 108 102 100 98 93 91 91 93 96 98 94 91 92 86 82 82 78 74 76 78 78 85 83 79 69 67 64 62 61 62 62 61 61 59
165 168 175 172 166 150 132 124 118 109 105 107 102 95 96 96 97 98 100 101 93 91 90 86 82 79 78 78 79 83 89 84 81 77 72 69 65 64 64 63 62 62 61
160 168 172 174 169 160 142 134 124 117 112 106 99 99 98 98 98 99 97 101 96 94 92 90 85 83 82 81 83 86 83 79 78 76 73 70 68 66 66 65 65 65 64
159 166 174 174 169 162 151 140 133 126 119 112 108 104 104 103 102 101 99 98 98 98 98 90 90 88 87 87 86 87 83 79 77 75 71 74 70 68 69 68 67 67 68
161 164 180 173 173 168 157 148 143 134 123 117 111 111 107 103 103 102 102 102 101 104 98 94 90 89 90 91 92 90 83 81 77 77 78 75 79 75 74 73 72 68 70
165 165 172 174 175 172 166 158 150 140 134 127 118 111 109 108 103 104 104 105 106 103 100 97 94 93 94 96 97 92 82 85 82 74 70 73 75 78 73 73 69 68 67
171 168 171 175 177 177 174 168 157 152 146 133 125 118 114 110 110 112 111 110 109 105 101 100 99 99 101 101 98 93 88 87 83 76 70 72 72 71 74 73 69 68 65
175 175 174 174 178 182 180 179 168 160 153 143 134 127 121 119 120 121 118 114 112 110 108 106 106 104 106 103 98 91 87 86 82 79 81 84 83 80 80 79 77 73 70
178 182 181 180 180 181 185 183 179 169 161 154 146 136 127 122 123 124 121 120 115 114 113 112 112 116 112 105 96 95 88 82 81 81 85 84 83 83 84 82 77 74 70
187 190 186 183 183 184 185 185 184 180 172 163 155 144 125 124 119 114 130 125 123 119 117 118 119 120 117 112 102 94 89 86 86 84 85 84 81 81 81 79 77 75 73
195 196 191 189 188 188 185 187 183 184 180 171 167 158 152 144 140 132 133 132 128 126 122 120 116 108 104 99 90 91 94 94 87 83 88 88 87 87 83 81 81 78 72
199 199 198 194 195 193 189 186 189 191 188 184 181 169 165 168 163 143 141 136 133 129 126 122 107 116 113 105 101 103 102 96 89 88 96 91 92 89 89 83 79 74 72
203 202 202 200 199 199 196 193 193 195 199 194 192 184 186 183 162 166 157 157 143 143 141 136 127 118 109 106 107 107 105 104 101 100 102 98 95 90 88 85 81 78 74
207 205 204 203 202 200 201 198 203 206 204 201 197 195 185 182 179 175 183 172 163 158 155 147 137 129 117 109 107 108 106 106 103 99 99 96 93 90 88 86 83 79 75
209 207 205 205 206 204 199 207 213 211 214 215 206 199 192 194 189 191 191 179 172 163 166 149 147 144 134 124 113 111 111 111 108 106 100 105 95 87 88 87 85 81 78
211 210 206 206 205 206 209 211 215 222 219 217 221 208 205 201 193 192 192 180 173 170 165 173 159 148 144 133 121 114 112 113 116 112 104 98 102 95 88 86 86 84 79
213 211 208 205 204 205 207 209 214 219 221 222 222 218 212 205 202 186 191 191 190 180 181 171 162 153 149 138 128 122 119 118 117 119 124 118 107 97 90 87 87 84 80
213 211 209 207 206 207 209 212 217 220 223 223 224 220 211 210 206 198 196 202 196 188 182 177 169 162 153 143 130 126 122 118 116 122 122 128 121 115 112 105 99 86 81
213 212 211 209 208 207 208 211 217 219 222 220 220 220 218 208 208 195 205 205 198 187 182 179 173 166 159 149 132 127 125 125 127 129 125 123 126 127 127 116 104 100 83
213 211 211 209 209 204 203 205 209 213 215 222 218 220 218 214 213 211 210 205 197 195 191 185 179 168 155 148 125 119 120 132 148 148 142 139 132 130 128 127 127 120 82
210 210 209 210 208 206 204 206 211 217 222 225 231 225 223 221 219 215 211 205 200 197 191 185 179 159 164 167 146 135 162 174 185 175 166 159 152 146 140 141 140 135 126
212 209 208 207 206 204 203 202 205 217 218 219 221 224 223 221 221 219 218 212 205 202 196 191 188 180 169 182 173 154 159 196 151 189 186 182 175 167 168 161 152 140 129
218 215 212 208 204 204 201 200 200 204 208 221 221 222 217 218 219 222 222 212 209 205 199 197 197 191 184 182 187 210 184 146 183 165 200 197 191 189 187 183 180 168 151
218 215 214 210 208 207 204 205 205 207 215 217 209 217 216 216 219 220 217 214 213 200 205 204 200 191 200 184 184 188 193 187 184 140 162 187 200 200 199 198 199 197 164
218 206 207 208 211 210 209 210 211 213 214 210 201 208 211 214 216 218 219 216 215 210 211 210 208 195 200 192 189 186 179 169 192 173 135 165 184 195 199 207 209 202 200